Content
SEND FEEDBACK

Australia Flag

BARMARYEE, QUEENSLAND


Home > Oceania > Australia > Queensland
Elevation: 246 feet     Latitude: 23 06S     Longitude: 150 43E

WEATHER
 
SELECT A DAY
Number of Records: 322,642;   Date Range: 2/21/97 - 3/22/16
 
SHARE

PRINT THIS DATA

[ ← Previous Day ]
WEATHER ALMANAC - JANUARY 30, 2013
[ Next Day → ]
[ °C ]   °F
Weather ElementAverageHighLow
Temperature87.1 °F97 °F (1:00 pm)78.8 °F (5:00 am)
Dewpoint71 °F77 °F (12:00 am)51 °F (12:00 pm)
Humidity61.9 %94 % (5:00 am)13 % (12:00 pm)
Barometer29.74 in29.84 in (10:00 pm)29.68 in (12:30 am)
Wind Speed7 mph15 mph (11:03 pm)
Weather ElementAverage
Visibility9 mi
Wind DirectionESE (124.8 °)

Weather ElementTotal
Precipitation---
Cooling Degree Days22.9 (Base 65)
Growing Degree Days37.9 (Base 50)
Averaged from 63 records on January 30, 2013
WEATHER CONDITIONS BREAKOUT
WIND DIRECTION BREAKOUT
WEATHER BY HOUR - JANUARY 30, 2013
[ °C ]   °F
Local TimeTemperatureDewpointHumidityBarometerVisibilityWind DirectionWind SpeedGust SpeedPrecipitationEventsConditions
12:00 AM82.4 °F77.0 °F84 %29.71 in6.2 miSW (230°)4.6 mph
12:30 AM82.4 °F77.0 °F84 %29.68 in6.2 miSW (230°)5.8 mph
1:00 AM81.0 °F77.0 °F85 %29.70 inSSW (210°)4.6 mph
1:00 AM80.6 °F77.0 °F89 %29.68 in6.2 miSSW (210°)4.6 mph
1:30 AM80.6 °F77.0 °F89 %29.68 in6.2 miSSW (200°)3.5 mph
2:00 AM80.6 °F77.0 °F89 %29.68 in6.2 miSSE (160°)5.8 mph
2:30 AM80.6 °F77.0 °F89 %29.68 in6.2 miESE (110°)3.5 mph
3:00 AM80.6 °F77.0 °F89 %29.68 in6.2 miSE (130°)4.6 mph
3:00 AM80.0 °F77.0 °F86 %29.70 inSE (130°)4.6 mph
3:30 AM80.6 °F77.0 °F89 %29.68 in6.2 miCalm
4:00 AM80.0 °F77.0 °F89 %29.71 inCalm
4:00 AM80.6 °F77.0 °F89 %29.71 in6.2 miCalm
4:30 AM80.6 °F77.0 °F89 %29.71 in6.2 miSSE (160°)3.5 mph
5:00 AM78.8 °F77.0 °F94 %29.74 in6.2 miESE (120°)1.2 mph
5:30 AM78.8 °F77.0 °F94 %29.74 in6.2 miCalm
6:00 AM78.8 °F77.0 °F94 %29.74 inCalmClear
6:00 AM79.0 °F76.0 °F89 %29.76 in25.0 miCalmPartly Cloudy
6:30 AM80.6 °F77.0 °F89 %29.74 inSSE (160°)1.2 mphClear
7:00 AM82.0 °F77.0 °F81 %29.78 inSSE (160°)4.6 mph
7:00 AM82.4 °F77.0 °F84 %29.77 inSSE (160°)4.6 mphClear
7:30 AM82.4 °F75.2 °F79 %29.77 inSouth (170°)4.6 mphClear
8:00 AM84.2 °F75.2 °F74 %29.77 inSSE (150°)3.5 mphClear
8:30 AM86.0 °F75.2 °F70 %29.77 in6.2 miSouth (180°)4.6 mphPartly Cloudy
9:00 AM87.8 °F75.2 °F66 %29.77 in6.2 miSouth (190°)4.6 mphPartly Cloudy
9:00 AM88.0 °F75.0 °F58 %29.78 in25.0 miSouth (190°)4.6 mphPartly Cloudy
9:30 AM89.6 °F73.4 °F59 %29.77 in6.2 miSouth (170°)4.6 mphPartly Cloudy
10:00 AM91.0 °F69.0 °F38 %29.78 inSE (130°)8.1 mph
10:00 AM91.4 °F68.0 °F46 %29.77 in6.2 miSE (130°)8.1 mphPartly Cloudy
10:30 AM93.2 °F66.2 °F41 %29.77 in6.2 miSE (140°)6.9 mphPartly Cloudy
11:00 AM93.2 °F62.6 °F36 %29.77 in6.2 miESE (110°)6.9 mphPartly Cloudy
11:30 AM95.0 °F57.2 °F28 %29.77 in6.2 miSE (130°)6.9 mphPartly Cloudy
12:00 PM96.8 °F51.8 °F22 %29.74 in6.2 miSE (140°)8.1 mphPartly Cloudy
12:00 PM96.0 °F51.0 °F13 %29.75 in25.0 miSE (140°)8.1 mphPartly Cloudy
12:30 PM96.8 °F60.8 °F30 %29.74 in6.2 miESE (120°)9.2 mphPartly Cloudy
1:00 PM97.0 °F63.0 °F24 %29.73 inSE (130°)10.4 mph
1:00 PM96.8 °F62.6 °F32 %29.71 inSE (130°)10.4 mphClear
1:30 PM96.8 °F60.8 °F30 %29.71 in6.2 miESE (110°)9.2 mph
2:00 PM96.8 °F60.8 °F30 %29.71 in6.2 miESE (120°)10.4 mph
2:30 PM96.8 °F62.6 °F32 %29.71 inSE (130°)10.4 mphClear
3:00 PM96.8 °F66.2 °F37 %29.68 inESE (120°)10.4 mphClear
3:00 PM97.0 °F67.0 °F27 %29.70 in25.0 miESE (120°)10.4 mphPartly Cloudy
3:30 PM95.0 °F66.2 °F39 %29.68 inESE (110°)10.4 mphClear
4:00 PM95.0 °F66.0 °F29 %29.70 inESE (110°)11.5 mph
4:00 PM95.0 °F66.2 °F39 %29.68 inESE (110°)11.5 mphClear
4:30 PM93.2 °F66.2 °F41 %29.68 inEast (90°)9.2 mphClear
5:00 PM93.2 °F68.0 °F44 %29.71 inEast (100°)10.4 mphClear
5:30 PM91.4 °F68.0 °F46 %29.71 inEast (90°)10.4 mphClear
6:00 PM89.6 °F66.2 °F46 %29.71 inEast (90°)8.1 mphClear
6:00 PM90.0 °F66.0 °F36 %29.73 in25.0 miEast (90°)8.1 mphPartly Cloudy
6:30 PM87.8 °F68.0 °F52 %29.74 in6.2 miESE (110°)8.1 mphPartly Cloudy
7:00 PM87.0 °F70.0 °F48 %29.76 inESE (110°)8.1 mph
7:00 PM86.0 °F69.8 °F58 %29.74 in6.2 miESE (110°)8.1 mphPartly Cloudy
7:30 PM86.0 °F71.6 °F62 %29.77 in6.2 miEast (90°)8.1 mphPartly Cloudy
8:00 PM86.0 °F71.6 °F62 %29.80 in6.2 miESE (110°)9.2 mphPartly Cloudy
8:30 PM84.2 °F75.2 °F74 %29.80 in6.2 miEast (100°)8.1 mphPartly Cloudy
9:00 PM84.2 °F75.2 °F74 %29.83 in6.2 miEast (100°)10.4 mphScattered Clouds
9:00 PM84.0 °F74.0 °F66 %29.83 in25.0 miEast (100°)10.4 mphPartly Cloudy
9:30 PM84.2 °F75.2 °F74 %29.83 in6.2 miESE (110°)10.4 mphScattered Clouds
10:00 PM83.0 °F75.0 °F70 %29.84 inESE (110°)11.5 mph
10:00 PM82.4 °F75.2 °F79 %29.83 in6.2 miESE (110°)11.5 mphScattered Clouds
10:30 PM82.4 °F73.4 °F74 %29.83 in6.2 miESE (120°)13.8 mphPartly Cloudy
11:03 PM82.4 °F73.4 °F74 %29.83 in6.2 miESE (110°)15.0 mphPartly Cloudy
11:30 PM82.4 °F73.4 °F74 %29.83 in6.2 miESE (110°)10.4 mphMostly Cloudy
Hourly data recorded from YBRK, located miles away from Barmaryee, Queensland




STORIES FROM OUR PARTNERS